Home > Weather > Zagreb > Past weeks

Flag for Croatia Past Weather in Zagreb, Croatia — Yesterday and Last 2 Weeks

Now
66 °F

Clear.


Feels Like: 66 °F
Forecast: 65 / 82 °F
Wind: 3 mph from West

Location: Zagreb / Pleso

Current Time: Jul 29, 2016 at 12:28:51 AM

Latest Report: Jul 29, 2016 at 12:00 AM


Visibility: 10 mi

Pressure: 29.98 "Hg

Humidity: 94%

Dew Point: 64 °F

Location of ZagrebLocation

Past Weather in Zagreb — Graph

°F

Zagreb Temperature Yesterday

Maximum temperature yesterday: 81 °F (at 2:30 PM)
Minimum temperature yesterday: 66 °F (at 3:00 AM)
Average temperature yesterday: 73 °F

High & Low Weather Summary for the Past Weeks

 TemperatureHumidityPressure
High91 °F (Jul 23, 3:30 PM)94% (Jul 14, 3:30 AM)30.18 "Hg (Jul 14, 3:30 AM)
Low55 °F (Jul 17, 6:00 AM)36% (Jul 23, 2:00 PM)29.68 "Hg (Jul 14, 1:00 AM)
Average72 °F71%30.01 "Hg
* Reported Jul 13 11:00 PM — Jul 28 11:00 PM, Zagreb, Weather by CustomWeather, © 2016

Note: Actual official high and low records may vary slightly from our data, if they occured in-between our weather recording intervals... More about our weather records

Advertising

Zagreb Weather History for the Previous 24 Hours

Scroll right to see more
 ConditionsComfort  
Time TempWeatherWind HumidityBarometerVisibility
11:00 PM
Thu, Jul 28
66 °FPassing clouds.3 mph94%29.98 "HgN/A
10:30 PM66 °FClear.2 mph94%29.98 "Hg10 mi
10:00 PM68 °FPassing clouds.3 mph88%29.98 "HgN/A
9:30 PM68 °FPassing clouds.2 mph88%29.98 "HgN/A
9:00 PM70 °FPassing clouds.3 mph88%29.98 "HgN/A
8:30 PM72 °FPassing clouds.3 mph83%29.98 "HgN/A
8:00 PM72 °FPassing clouds.2 mph88%29.98 "HgN/A
7:30 PM72 °FPassing clouds.5 mph88%29.98 "HgN/A
7:00 PM73 °FPassing clouds.5 mph83%29.98 "HgN/A
6:30 PM75 °FLight rain. Passing clouds.6 mph78%29.98 "HgN/A
6:00 PM79 °FThunderstorms. Passing clouds.2 mph65%29.98 "HgN/A
5:30 PM79 °FThundershowers. Passing clouds.2 mph61%29.95 "HgN/A
5:00 PM81 °FPassing clouds.3 mph58%29.98 "HgN/A
4:30 PM81 °FPassing clouds.1 mph54%29.98 "HgN/A
4:00 PM81 °FPassing clouds.2 mph58%29.98 "HgN/A
3:30 PM81 °FPassing clouds.5 mph58%29.98 "HgN/A
3:00 PM81 °FScattered clouds.6 mph58%29.98 "HgN/A
2:30 PM81 °FScattered clouds.10 mph58%29.98 "HgN/A
2:00 PM79 °FPartly sunny.9 mph61%29.98 "HgN/A
1:30 PM79 °FPartly sunny.7 mph65%30.01 "HgN/A
1:00 PM79 °FScattered clouds.8 mph65%30.01 "HgN/A
12:30 PM79 °FScattered clouds.10 mph65%30.01 "HgN/A
12:00 PM79 °FScattered clouds.8 mph70%30.04 "HgN/A
11:30 AM77 °FScattered clouds.9 mph69%30.04 "HgN/A
11:00 AM77 °FScattered clouds.7 mph74%30.01 "HgN/A
10:30 AM75 °FPassing clouds.8 mph74%30.01 "HgN/A
10:00 AM75 °FScattered clouds.8 mph74%30.01 "HgN/A
9:30 AM75 °FScattered clouds.6 mph74%30.01 "HgN/A
9:00 AM73 °FScattered clouds.5 mph74%30.01 "HgN/A
8:30 AM73 °FPassing clouds.5 mph78%30.01 "HgN/A
8:00 AM73 °FScattered clouds.3 mph78%29.98 "HgN/A
7:30 AM70 °FScattered clouds.2 mph88%29.98 "HgN/A
7:00 AM68 °FScattered showers. Partly sunny.2 mph88%29.98 "HgN/A
6:30 AM66 °FPassing clouds.2 mph88%29.98 "HgN/A
6:00 AM66 °FPassing clouds.No wind88%29.98 "HgN/A
5:30 AM66 °FScattered showers. Passing clouds.2 mph88%29.98 "HgN/A
5:00 AM66 °FScattered showers. Passing clouds.2 mph88%29.95 "HgN/A
4:30 AM66 °FPassing clouds.3 mph88%29.95 "HgN/A
4:00 AM66 °FPassing clouds.3 mph88%29.95 "HgN/A
3:30 AM66 °FPassing clouds.5 mph88%29.95 "HgN/A
3:00 AM66 °FPassing clouds.2 mph88%29.95 "HgN/A
2:30 AM68 °FPassing clouds.3 mph88%29.95 "HgN/A
2:00 AM68 °FPassing clouds.1 mph88%29.95 "HgN/A
1:30 AM68 °FPassing clouds.3 mph88%29.95 "HgN/A
1:00 AM70 °FClear.No wind83%29.95 "Hg10 mi
12:30 AM70 °FPassing clouds.3 mph83%29.95 "HgN/A
12:00 AM72 °FPassing clouds.6 mph83%29.95 "HgN/A
Weather by CustomWeather, © 2016

See weather overviewHow to use our weather pages